Weather History for KVGT - February, 2013

Change the Weather History Date:

Friday, February 8, 2013

  Actual Average (KLAS) Record (KLAS)
Temperature  
Mean Temperature 48 °F 51 °F  
Max Temperature 53 °F 61 °F 77 °F (2015)
Min Temperature 43 °F 42 °F 25 °F (1949)
Degree Days  
Heating Degree Days 17 14  
Month to date heating degree days 114  
Since 1 July heating degree days 1466  
Cooling Degree Days 0 0  
Month to date cooling degree days 0  
Year to date cooling degree days 0  
Moisture  
Dew Point 24 °F    
Average Humidity 39    
Maximum Humidity 49    
Minimum Humidity 26    
Precipitation  
Precipitation 0.00 in 0.02 in 1.29 in (1993)
Month to date precipitation 0.17  
Year to date precipitation 0.71  
Snow  
Snow 0.00 in 0.00 in 0.30 in (1989)
Month to date snowfall 0.0  
Since 1 July snowfall 0.2  
Snow Depth -    
Sea Level Pressure  
Sea Level Pressure 29.76 in    
Wind  
Wind Speed 10 mph (West)    
Max Wind Speed 22 mph    
Max Gust Speed 28 mph    
Visibility 10 miles    
Events      
T = Trace of Precipitation, MM = Missing Value Source: NWS Daily Summary

Daily Weather History Graph

Daily Weather History Graph

Search for Another Location

Airport or City:

Trip Planner

Search our weather history database for the weather conditions in past years. The results will help you decide how hot, cold, wet, or windy it might be!

Date:

Astronomy

Feb. 08, 2013 Rise Set
Actual Time 6:35 AM PST 5:15 PM PST
Civil Twilight 6:08 AM PST 5:41 PM PST
Nautical Twilight 5:38 AM PST 6:12 PM PST
Astronomical Twilight 5:08 AM PST 6:42 PM PST
Moon 5:05 AM PST (2/8) 3:54 PM PST (2/8)
Length of Visible Light 11h 33m
Length of Day
10h 39m
Waning Crescent, 3% of the Moon is Illuminated
Feb 8
Waning Crescent
Feb 9
New
Feb 17
First Quarter
Feb 25
Full
Mar 4
Last Quarter

Hourly Weather History & Observations

Time (PST) Temp. Windchill Dew Point Humidity Pressure Visibility Wind Dir Wind Speed Gust Speed Precip Events Conditions
12:53 AM 52.0 °F - 23.0 °F 32% 29.77 in 10.0 mi SSE 3.5 mph - N/A   Clear
1:53 AM 53.1 °F - 26.1 °F 35% 29.76 in 10.0 mi WSW 9.2 mph - N/A   Clear
2:53 AM 51.1 °F - 28.9 °F 43% 29.75 in 10.0 mi WSW 6.9 mph - N/A   Clear
3:53 AM 50.0 °F - 27.0 °F 41% 29.73 in 10.0 mi SW 16.1 mph - N/A   Clear
4:53 AM 48.0 °F - 27.0 °F 44% 29.73 in 10.0 mi SW 5.8 mph - N/A   Clear
5:53 AM 46.9 °F - 26.1 °F 44% 29.73 in 10.0 mi SW 9.2 mph - N/A   Clear
6:53 AM 46.9 °F - 24.1 °F 41% 29.74 in 10.0 mi SW 11.5 mph 17.3 mph N/A   Clear
7:53 AM 46.9 °F - 25.0 °F 42% 29.75 in 10.0 mi South 12.7 mph 17.3 mph N/A   Scattered Clouds
8:53 AM 50.0 °F - 21.9 °F 33% 29.76 in 10.0 mi WSW 12.7 mph 20.7 mph N/A   Clear
9:53 AM 50.0 °F - 21.0 °F 32% 29.78 in 10.0 mi WSW 13.8 mph - N/A   Partly Cloudy
10:53 AM 51.1 °F - 21.9 °F 32% 29.78 in 10.0 mi West 17.3 mph 25.3 mph N/A   Mostly Cloudy
11:53 AM 52.0 °F - 21.0 °F 30% 29.76 in 10.0 mi SW 21.9 mph 27.6 mph N/A   Overcast
12:53 PM 50.0 °F - 21.0 °F 32% 29.75 in 10.0 mi West 16.1 mph 26.5 mph N/A   Scattered Clouds
1:53 PM 53.1 °F - 21.0 °F 29% 29.74 in 10.0 mi West 10.4 mph 23.0 mph N/A   Partly Cloudy
2:53 PM 52.0 °F - 18.0 °F 26% 29.74 in 10.0 mi WSW 12.7 mph 21.9 mph N/A   Partly Cloudy
3:53 PM 50.0 °F - 23.0 °F 35% 29.76 in 10.0 mi North 13.8 mph 18.4 mph N/A   Mostly Cloudy
4:53 PM 46.9 °F - 27.0 °F 46% 29.77 in 10.0 mi NNW 13.8 mph 20.7 mph N/A   Clear
5:53 PM 46.0 °F 41.9 °F 27.0 °F 47% 29.79 in 10.0 mi NNW 8.1 mph - N/A   Clear
6:53 PM 45.0 °F 41.8 °F 26.1 °F 48% 29.80 in 10.0 mi WNW 5.8 mph - N/A   Clear
7:53 PM 45.0 °F 41.2 °F 25.0 °F 46% 29.79 in 10.0 mi WNW 6.9 mph - N/A   Mostly Cloudy
8:53 PM 44.1 °F 39.0 °F 24.1 °F 45% 29.79 in 10.0 mi NNW 9.2 mph - N/A   Partly Cloudy
9:53 PM 44.1 °F 38.6 °F 25.0 °F 47% 29.79 in 10.0 mi NW 10.4 mph - N/A   Overcast
10:53 PM 43.0 °F 40.3 °F 25.0 °F 49% 29.78 in 10.0 mi West 4.6 mph - N/A   Clear
11:53 PM 44.1 °F 40.1 °F 24.1 °F 45% 29.78 in 10.0 mi NNW 6.9 mph - N/A   Clear